Location: Capel Gartheli
(52.1833°N, 4.0667°W)
Time: 21:30:40
(UTC+00:00)

Cosmos 2219 Rocket - Pass Details

Date: 18 February 2020
Orbit: 828 x 846 km, 71.0° (Epoch: 29 March)

Event Time Altitude Azimuth Distance (km) Brightness Sun altitude
Exits shadow 05:40:44 15° 314° (NW) 2,130 3.9 -16.9°
Maximum altitude 05:42:23 17° 334° (NNW) 2,028 4.0 -16.6°
Drops below altitude 10° 05:46:01 10° 14° (NNE) 2,479 4.8 -16.1°
Sets 05:49:25 0° 34° (NE) 3,415 5.9 -15.5°
